Location: Unspecified
(47.7670°N, 8.8522°E)
Time: 13:26:36
(UTC+01:00)

ISS - Pass Details

Date: 25 January 2019
Orbit: 403 x 411 km, 51.6° (Epoch: 20 February)

Event Time Altitude Azimuth Distance (km) Brightness Sun altitude
Rises 20:02:37 0° 260° (W) 2,333 1.2 -28.2°
Reaches altitude 10° 20:04:44 10° 265° (W) 1,475 -0.1 -28.5°
Enters shadow 20:05:43 18° 270° (W) 1,093 -0.9 -28.7°
